Weather in Birštonas

Lithuania     54°36′20″N   24°01′47″E
temp.,
°C
wind,
m/s
gust,
m/s
humid.,
%
clouds,
%
prec.,
mm/h
press.,
hPa
HPBL,
m
13 august, sat
sat1300:00+17ene368583 0.0 102396
03:00+16e238792 0.0 102339
06:00+16ene348724 0.0 102256
09:00+20ene36723 0.0 1022286
12:00+25ene35540 0.0 1021860
15:00+27ne44471 0.0 10201279
18:00+26ne45580 0.0 1019904
21:00+20ene35811 0.0 101986
14 august, sun
sun1400:00+17ene35777 0.0 101967
03:00+16ene3580100 0.0 101878
06:00+15ene368293 0.0 101793
09:00+20ene3773100 0.0 1017249
12:00+23ene3567100 0.0 1016560
15:00+25ene576285 0.0 1015852
18:00+26e466459 0.0 10141249
21:00+21ene37868 0.3 1013133
15 august, mon
mon1500:00+19e310918 0.1 1013210
03:00+19ese4118695 0.1 1013255
06:00+18ese41090100 0.0 1013208
09:00+20ese4988100 0.9 1013288
12:00+26ese576196 0.0 1013725
15:00+28ese5753100 0.0 10121190
18:00+27ese4862100 0.0 1012852
21:00+22ese41167100 0.0 1012265
16 august, tue
tue1600:00+23e51467100 0.0 1012422
03:00+20ese41078100 0.0 1012229
06:00+19e388174 0.0 1011155
09:00+22ese3973100 0.0 1011296
12:00+26ese366163 0.0 1011495
15:00+28ese5651100 0.0 10121082
18:00+23se4972100 0.0 1013432
21:00+20e3685100 0.0 1013175
17 august, wed
wed1700:00+18e3108829 0.0 1013255
03:00+18ese3889100 0.0 1013257
06:00+16ese379363 0.0 1012191
09:00+20se468132 0.0 1013381
12:00+25sse365828 0.0 1013994
15:00+27sse345214 0.0 10131183
18:00+27sse24545 0.0 10121277
21:00+21ese33735 0.0 101249